When you browse on this site, cookies collect data to enhance your experience and personalize the content and advertising you see.
Visit our Privacy Policy to learn more. By continuing to use the site, you agree to this use of cookies and data.
  • In Lithuania
  • List of Countries
  • For 7 days
  • Water Temperature
  • Weather Map
  • Weather Widgets
  • user-avatar
    Login

    Hourly Weather Saint-Pierre i Miquelon

    Today, 20 August, Tuesday

    Time Temperature Precipitation Wind Pressure Humidity
    00:00 +16°C° 0 mm 5 mps 763 mmHg 97%
    01:00 +16°C° 0 mm 5 mps 762 mmHg 97%
    02:00 +16°C° 0 mm 6 mps 762 mmHg 97%
    03:00 +17°C° 0 mm 6 mps 761 mmHg 97%
    04:00 +17°C° 0 mm 7 mps 761 mmHg 96%
    05:00 +18°C° 0 mm 7 mps 761 mmHg 96%
    06:00 +18°C° 0.3 mm 7 mps 761 mmHg 96%
    07:00 +18°C° 0.3 mm 8 mps 761 mmHg 96%
    08:00 +19°C° 0.3 mm 9 mps 760 mmHg 96%
    09:00 +20°C° 0.1 mm 8 mps 760 mmHg 95%
    10:00 +21°C° 0.1 mm 8 mps 760 mmHg 94%
    11:00 +21°C° 0.1 mm 8 mps 760 mmHg 93%
    12:00 +21°C° 0.2 mm 8 mps 760 mmHg 93%
    13:00 +21°C° 0.2 mm 7 mps 759 mmHg 93%
    14:00 +22°C° 0.2 mm 7 mps 759 mmHg 93%
    15:00 +21°C° 0.1 mm 7 mps 759 mmHg 93%
    16:00 +21°C° 0.1 mm 7 mps 759 mmHg 94%
    17:00 +21°C° 0.1 mm 7 mps 759 mmHg 94%
    18:00 +20°C° 0 mm 7 mps 760 mmHg 94%
    19:00 +18°C° 0 mm 8 mps 760 mmHg 93%
    20:00 +17°C° 0 mm 8 mps 761 mmHg 93%
    21:00 +17°C° 0 mm 8 mps 761 mmHg 92%
    22:00 +17°C° 0 mm 8 mps 761 mmHg 90%
    23:00 +16°C° 0 mm 8 mps 761 mmHg 89%

    Tomorrow, 21 August, Wednesday

    Time Temperature Precipitation Wind Pressure Humidity
    00:00 +16°C° 0 mm 7 mps 761 mmHg 89%
    01:00 +16°C° 0 mm 7 mps 761 mmHg 90%
    02:00 +15°C° 0 mm 7 mps 762 mmHg 90%
    03:00 +15°C° 0 mm 7 mps 762 mmHg 90%
    04:00 +15°C° 0 mm 6 mps 762 mmHg 91%
    05:00 +15°C° 0 mm 6 mps 762 mmHg 91%
    06:00 +17°C° 0 mm 6 mps 763 mmHg 86%
    07:00 +20°C° 0 mm 6 mps 763 mmHg 81%
    08:00 +21°C° 0 mm 5 mps 763 mmHg 76%
    09:00 +22°C° 0 mm 5 mps 763 mmHg 71%
    10:00 +23°C° 0 mm 6 mps 763 mmHg 66%
    11:00 +24°C° 0 mm 6 mps 763 mmHg 61%
    12:00 +24°C° 0 mm 6 mps 763 mmHg 62%
    13:00 +24°C° 0 mm 6 mps 763 mmHg 63%
    14:00 +24°C° 0 mm 6 mps 763 mmHg 64%
    15:00 +23°C° 0 mm 6 mps 763 mmHg 67%
    16:00 +22°C° 0 mm 6 mps 763 mmHg 70%
    17:00 +22°C° 0 mm 6 mps 763 mmHg 73%
    18:00 +20°C° 0 mm 5 mps 764 mmHg 78%
    19:00 +19°C° 0 mm 5 mps 764 mmHg 83%
    20:00 +17°C° 0 mm 5 mps 764 mmHg 88%
    21:00 +17°C° 0 mm 5 mps 764 mmHg 85%
    22:00 +17°C° 0 mm 5 mps 764 mmHg 82%
    23:00 +17°C° 0 mm 5 mps 764 mmHg 80%

    Day after tomorrow, 22 August, Thursday

    Time Temperature Precipitation Wind Pressure Humidity
    00:00 +17°C° 0 mm 5 mps 764 mmHg 84%
    01:00 +16°C° 0 mm 5 mps 764 mmHg 89%
    02:00 +16°C° 0 mm 5 mps 764 mmHg 93%
    03:00 +17°C° 0 mm 4 mps 764 mmHg 94%
    04:00 +17°C° 0 mm 4 mps 764 mmHg 95%
    05:00 +17°C° 0 mm 4 mps 764 mmHg 97%
    06:00 +19°C° 0 mm 4 mps 764 mmHg 92%
    07:00 +20°C° 0 mm 5 mps 765 mmHg 88%
    08:00 +21°C° 0 mm 6 mps 765 mmHg 84%
    09:00 +22°C° 0 mm 6 mps 764 mmHg 81%
    10:00 +22°C° 0 mm 6 mps 764 mmHg 79%
    11:00 +23°C° 0 mm 7 mps 763 mmHg 77%
    12:00 +23°C° 0 mm 7 mps 763 mmHg 76%
    13:00 +23°C° 0 mm 8 mps 763 mmHg 76%
    14:00 +23°C° 0 mm 8 mps 762 mmHg 76%
    15:00 +22°C° 0 mm 8 mps 762 mmHg 80%
    16:00 +21°C° 0 mm 9 mps 762 mmHg 84%
    17:00 +19°C° 0 mm 9 mps 761 mmHg 88%
    18:00 +19°C° 0.3 mm 9 mps 761 mmHg 91%
    19:00 +19°C° 0.3 mm 9 mps 761 mmHg 94%
    20:00 +19°C° 0.3 mm 9 mps 760 mmHg 97%
    21:00 +19°C° 0.3 mm 9 mps 760 mmHg 97%
    22:00 +21°C° 0.3 mm 9 mps 759 mmHg 97%
    23:00 +21°C° 0.3 mm 9 mps 759 mmHg 96%

    23 August, Friday

    Time Temperature Precipitation Wind Pressure Humidity
    00:00 +21°C° 0.2 mm 10 mps 758 mmHg 96%
    01:00 +21°C° 0.2 mm 10 mps 758 mmHg 96%
    02:00 +21°C° 0.2 mm 10 mps 758 mmHg 95%
    03:00 +21°C° 0.9 mm 10 mps 757 mmHg 96%
    04:00 +21°C° 0.9 mm 9 mps 757 mmHg 97%
    05:00 +21°C° 0.9 mm 8 mps 757 mmHg 97%
    06:00 +21°C° 0.6 mm 8 mps 757 mmHg 97%
    07:00 +22°C° 0.6 mm 8 mps 757 mmHg 96%
    08:00 +22°C° 0.6 mm 9 mps 756 mmHg 96%
    09:00 +22°C° 1.3 mm 9 mps 756 mmHg 95%
    10:00 +22°C° 1.3 mm 10 mps 756 mmHg 95%
    11:00 +22°C° 1.3 mm 11 mps 755 mmHg 94%
    12:00 +22°C° 0.5 mm 11 mps 755 mmHg 95%
    13:00 +22°C° 0.5 mm 11 mps 755 mmHg 95%
    14:00 +22°C° 0.5 mm 11 mps 755 mmHg 95%
    15:00 +21°C° 0.3 mm 10 mps 755 mmHg 96%
    16:00 +21°C° 0.3 mm 8 mps 754 mmHg 96%
    17:00 +21°C° 0.3 mm 7 mps 754 mmHg 97%
    18:00 +21°C° 5.4 mm 9 mps 753 mmHg 97%
    19:00 +21°C° 5.4 mm 11 mps 753 mmHg 97%
    20:00 +20°C° 5.4 mm 13 mps 753 mmHg 97%
    21:00 +21°C° 2.7 mm 11 mps 752 mmHg 97%
    22:00 +21°C° 2.7 mm 10 mps 752 mmHg 97%
    23:00 +21°C° 2.7 mm 8 mps 751 mmHg 97%

    24 August, Saturday

    Time Temperature Precipitation Wind Pressure Humidity
    00:00 +20°C° 0.3 mm 8 mps 751 mmHg 97%
    01:00 +20°C° 0.3 mm 7 mps 752 mmHg 96%
    02:00 +20°C° 0.3 mm 7 mps 752 mmHg 95%
    03:00 +18°C° 0 mm 7 mps 752 mmHg 94%
    04:00 +17°C° 0 mm 7 mps 753 mmHg 93%
    05:00 +16°C° 0 mm 8 mps 753 mmHg 92%
    06:00 +17°C° 0 mm 7 mps 754 mmHg 88%
    07:00 +19°C° 0 mm 6 mps 754 mmHg 85%
    08:00 +19°C° 0 mm 6 mps 754 mmHg 81%
    09:00 +20°C° 0 mm 5 mps 755 mmHg 76%
    10:00 +21°C° 0 mm 5 mps 755 mmHg 72%
    11:00 +22°C° 0 mm 4 mps 755 mmHg 67%
    12:00 +22°C° 0 mm 4 mps 755 mmHg 66%
    13:00 +22°C° 0 mm 3 mps 755 mmHg 65%
    14:00 +22°C° 0 mm 3 mps 755 mmHg 63%
    15:00 +21°C° 0.3 mm 3 mps 756 mmHg 68%
    16:00 +21°C° 0.3 mm 3 mps 756 mmHg 73%
    17:00 +20°C° 0.3 mm 4 mps 757 mmHg 78%
    18:00 +17°C° 0.3 mm 5 mps 757 mmHg 82%
    19:00 +16°C° 0.3 mm 7 mps 758 mmHg 87%
    20:00 +13°C° 0.3 mm 9 mps 759 mmHg 92%
    21:00 +13°C° 0 mm 10 mps 759 mmHg 91%
    22:00 +12°C° 0 mm 10 mps 760 mmHg 91%
    23:00 +12°C° 0 mm 10 mps 761 mmHg 90%

    25 August, Sunday

    Time Temperature Precipitation Wind Pressure Humidity
    00:00 +11°C° 0.1 mm 10 mps 761 mmHg 89%
    01:00 +11°C° 0.1 mm 10 mps 762 mmHg 88%
    02:00 +11°C° 0.1 mm 9 mps 763 mmHg 88%
    03:00 +11°C° 0 mm 9 mps 764 mmHg 86%
    04:00 +10°C° 0 mm 9 mps 764 mmHg 84%
    05:00 +10°C° 0 mm 9 mps 765 mmHg 83%
    06:00 +10°C° 0 mm 8 mps 766 mmHg 80%
    07:00 +10°C° 0 mm 8 mps 767 mmHg 78%
    08:00 +11°C° 0 mm 8 mps 768 mmHg 76%
    09:00 +11°C° 0 mm 7 mps 768 mmHg 72%
    10:00 +13°C° 0 mm 6 mps 768 mmHg 69%
    11:00 +14°C° 0 mm 5 mps 769 mmHg 65%
    12:00 +14°C° 0 mm 4 mps 769 mmHg 64%
    13:00 +14°C° 0 mm 4 mps 769 mmHg 63%
    14:00 +16°C° 0 mm 3 mps 769 mmHg 62%
    15:00 +16°C° 0 mm 2 mps 769 mmHg 63%
    16:00 +15°C° 0 mm 2 mps 770 mmHg 64%
    17:00 +15°C° 0 mm 2 mps 770 mmHg 65%
    18:00 +14°C° 0 mm 1 mps 770 mmHg 72%
    19:00 +12°C° 0 mm 1 mps 771 mmHg 79%
    20:00 +10°C° 0 mm 1 mps 771 mmHg 86%
    21:00 +10°C° 0 mm 1 mps 771 mmHg 86%
    22:00 +10°C° 0 mm 1 mps 771 mmHg 86%
    23:00 +10°C° 0 mm 1 mps 772 mmHg 85%
    Show more